TimeEST,TemperatureF,Dew PointF,Humidity,Sea Level PressureIn,VisibilityMPH,Wind Direction,Wind SpeedMPH,Gust SpeedMPH,PrecipitationIn,Events,Conditions,WindDirDegrees,DateUTC
12:15 AM,48.2,41.0,76,29.89,10.0,Calm,Calm,-,N/A,,Overcast,0,2012-12-16 05:15:00
12:35 AM,48.2,41.0,76,29.88,10.0,Calm,Calm,-,N/A,,Overcast,0,2012-12-16 05:35:00
12:55 AM,50.0,37.4,62,29.88,10.0,South,3.5,-,N/A,,Overcast,180,2012-12-16 05:55:00
1:15 AM,53.6,35.6,51,29.87,10.0,SW,3.5,-,N/A,,Overcast,220,2012-12-16 06:15:00
1:35 AM,53.6,35.6,51,29.87,10.0,Calm,Calm,-,N/A,,Overcast,0,2012-12-16 06:35:00
1:55 AM,53.6,35.6,51,29.87,10.0,SSW,5.8,-,N/A,,Overcast,210,2012-12-16 06:55:00
2:15 AM,53.6,35.6,51,29.87,10.0,South,6.9,-,N/A,,Overcast,190,2012-12-16 07:15:00
2:55 AM,53.6,37.4,54,29.87,10.0,SSW,4.6,-,N/A,,Overcast,200,2012-12-16 07:55:00
3:15 AM,53.6,37.4,54,29.87,10.0,South,5.8,-,N/A,,Overcast,190,2012-12-16 08:15:00
3:55 AM,53.6,37.4,54,29.86,10.0,South,3.5,-,N/A,,Overcast,180,2012-12-16 08:55:00
4:15 AM,53.6,37.4,54,29.86,10.0,Calm,Calm,-,N/A,,Overcast,0,2012-12-16 09:15:00
4:35 AM,53.6,39.2,58,29.86,10.0,South,3.5,-,N/A,,Overcast,180,2012-12-16 09:35:00
4:55 AM,53.6,41.0,62,29.86,10.0,South,4.6,-,N/A,,Overcast,190,2012-12-16 09:55:00
5:15 AM,53.6,42.8,67,29.86,10.0,South,4.6,-,N/A,,Mostly Cloudy,180,2012-12-16 10:15:00
5:35 AM,53.6,42.8,67,29.85,10.0,SSW,4.6,-,N/A,,Mostly Cloudy,210,2012-12-16 10:35:00
6:15 AM,53.6,42.8,67,29.85,10.0,Calm,Calm,-,N/A,,Overcast,0,2012-12-16 11:15:00
6:55 AM,53.6,42.8,67,29.85,10.0,Calm,Calm,-,N/A,,Scattered Clouds,0,2012-12-16 11:55:00
7:15 AM,51.8,44.6,76,29.86,10.0,Calm,Calm,-,N/A,,Scattered Clouds,0,2012-12-16 12:15:00
7:35 AM,53.6,44.6,72,29.84,10.0,SSE,5.8,-,N/A,,Mostly Cloudy,150,2012-12-16 12:35:00
7:55 AM,51.8,44.6,76,29.85,10.0,South,4.6,-,N/A,,Mostly Cloudy,190,2012-12-16 12:55:00
8:35 AM,53.6,44.6,72,29.84,10.0,SSE,3.5,-,N/A,,Overcast,160,2012-12-16 13:35:00
8:55 AM,53.6,44.6,72,29.84,10.0,SSW,4.6,-,N/A,,Overcast,200,2012-12-16 13:55:00
9:15 AM,53.6,44.6,72,29.83,10.0,SSE,5.8,-,N/A,,Mostly Cloudy,160,2012-12-16 14:15:00
9:35 AM,53.6,44.6,72,29.84,10.0,SSW,6.9,-,N/A,,Mostly Cloudy,200,2012-12-16 14:35:00
9:55 AM,55.4,46.4,72,29.84,10.0,SSW,4.6,-,N/A,,Overcast,210,2012-12-16 14:55:00
10:15 AM,55.4,46.4,72,29.84,10.0,SSW,4.6,-,N/A,,Overcast,200,2012-12-16 15:15:00
10:35 AM,55.4,46.4,72,29.84,10.0,South,5.8,-,N/A,,Overcast,190,2012-12-16 15:35:00
10:55 AM,55.4,46.4,72,29.84,10.0,SSW,4.6,-,N/A,,Overcast,200,2012-12-16 15:55:00
11:15 AM,55.4,46.4,72,29.84,10.0,SSW,5.8,-,N/A,,Overcast,200,2012-12-16 16:15:00
11:35 AM,57.2,46.4,67,29.83,10.0,South,8.1,-,N/A,,Overcast,180,2012-12-16 16:35:00
11:55 AM,57.2,48.2,72,29.82,10.0,South,6.9,-,N/A,,Overcast,180,2012-12-16 16:55:00
12:35 PM,57.2,50.0,77,29.79,10.0,SW,9.2,-,N/A,,Overcast,220,2012-12-16 17:35:00
12:55 PM,57.2,50.0,77,29.79,10.0,SSW,8.1,-,N/A,,Overcast,210,2012-12-16 17:55:00
1:15 PM,59.0,50.0,72,29.78,10.0,SSW,8.1,-,N/A,,Overcast,210,2012-12-16 18:15:00
1:35 PM,59.0,50.0,72,29.78,10.0,SSW,9.2,-,N/A,,Overcast,210,2012-12-16 18:35:00
1:55 PM,59.0,50.0,72,29.77,10.0,SSW,8.1,-,N/A,,Mostly Cloudy,210,2012-12-16 18:55:00
2:15 PM,59.0,50.0,72,29.76,10.0,SSW,8.1,-,N/A,,Mostly Cloudy,210,2012-12-16 19:15:00
2:35 PM,59.0,50.0,72,29.75,10.0,South,5.8,-,N/A,,Scattered Clouds,190,2012-12-16 19:35:00
2:55 PM,59.0,50.0,72,29.76,10.0,South,6.9,-,N/A,,Mostly Cloudy,190,2012-12-16 19:55:00
3:15 PM,59.0,50.0,72,29.76,10.0,South,5.8,-,N/A,,Scattered Clouds,190,2012-12-16 20:15:00
3:35 PM,59.0,50.0,72,29.76,10.0,SSW,9.2,-,N/A,,Mostly Cloudy,210,2012-12-16 20:35:00
3:55 PM,59.0,50.0,72,29.75,10.0,South,5.8,-,N/A,,Scattered Clouds,180,2012-12-16 20:55:00
4:15 PM,59.0,50.0,72,29.74,10.0,SSW,4.6,-,N/A,,Clear,200,2012-12-16 21:15:00
4:35 PM,59.0,50.0,72,29.74,10.0,South,4.6,-,N/A,,Clear,190,2012-12-16 21:35:00
5:15 PM,57.2,50.0,77,29.73,10.0,South,4.6,-,N/A,,Clear,170,2012-12-16 22:15:00
5:35 PM,57.2,50.0,77,29.74,10.0,SSW,3.5,-,N/A,,Clear,200,2012-12-16 22:35:00
5:55 PM,57.2,50.0,77,29.74,10.0,South,3.5,-,N/A,,Clear,190,2012-12-16 22:55:00
6:15 PM,57.2,50.0,77,29.74,10.0,Calm,Calm,-,N/A,,Clear,0,2012-12-16 23:15:00
6:55 PM,55.4,50.0,82,29.75,10.0,SSW,4.6,-,N/A,,Scattered Clouds,210,2012-12-16 23:55:00
7:15 PM,57.2,50.0,77,29.74,10.0,South,4.6,-,N/A,,Scattered Clouds,180,2012-12-17 00:15:00
7:55 PM,55.4,50.0,82,29.75,10.0,South,5.8,-,N/A,,Clear,190,2012-12-17 00:55:00
8:15 PM,57.2,50.0,77,29.75,10.0,South,4.6,-,N/A,,Clear,190,2012-12-17 01:15:00
8:35 PM,57.2,50.0,77,29.74,10.0,South,5.8,-,N/A,,Clear,190,2012-12-17 01:35:00
8:55 PM,55.4,50.0,82,29.75,10.0,South,3.5,-,N/A,,Clear,190,2012-12-17 01:55:00
9:15 PM,55.4,50.0,82,29.75,10.0,Calm,Calm,-,N/A,,Clear,0,2012-12-17 02:15:00
9:35 PM,55.4,50.0,82,29.76,10.0,Calm,Calm,-,N/A,,Mostly Cloudy,0,2012-12-17 02:35:00
9:55 PM,55.4,50.0,82,29.77,10.0,Calm,Calm,-,N/A,,Scattered Clouds,0,2012-12-17 02:55:00
10:15 PM,55.4,50.0,82,29.77,10.0,SSW,3.5,-,N/A,,Clear,200,2012-12-17 03:15:00
10:35 PM,55.4,50.0,82,29.76,10.0,South,3.5,-,N/A,,Clear,180,2012-12-17 03:35:00
10:55 PM,55.4,50.0,82,29.77,10.0,SSW,3.5,-,N/A,,Clear,210,2012-12-17 03:55:00
11:15 PM,51.8,46.4,82,29.77,10.0,Calm,Calm,-,N/A,,Clear,0,2012-12-17 04:15:00
11:35 PM,50.0,46.4,87,29.77,10.0,Calm,Calm,-,N/A,,Scattered Clouds,0,2012-12-17 04:35:00
11:55 PM,53.6,50.0,88,29.77,10.0,South,4.6,-,N/A,,Mostly Cloudy,190,2012-12-17 04:55:00